Year,Month,Day,Hour,Minute,Value (Times are PST for temperature in C)
2020,08,12,00,00,13.00
2020,08,12,00,01,12.90
2020,08,12,00,02,12.90
2020,08,12,00,03,12.90
2020,08,12,00,04,12.90
2020,08,12,00,05,12.80
2020,08,12,00,06,12.80
2020,08,12,00,07,12.80
2020,08,12,00,08,12.80
2020,08,12,00,10,12.80
2020,08,12,00,11,12.80
2020,08,12,00,12,12.80
2020,08,12,00,13,12.80
2020,08,12,00,14,12.80
2020,08,12,00,15,12.80
2020,08,12,00,16,12.80
2020,08,12,00,17,12.80
2020,08,12,00,18,12.80
2020,08,12,00,20,12.80
2020,08,12,00,21,12.80
2020,08,12,00,22,12.80
2020,08,12,00,23,12.80
2020,08,12,00,24,12.80
2020,08,12,00,25,12.80
2020,08,12,00,26,12.80
2020,08,12,00,27,12.80
2020,08,12,00,30,12.80
2020,08,12,00,31,12.80
2020,08,12,00,32,12.70
2020,08,12,00,33,12.70
2020,08,12,00,34,12.60
2020,08,12,00,35,12.60
2020,08,12,00,36,12.60
2020,08,12,00,37,12.60
2020,08,12,00,38,12.60
2020,08,12,00,39,12.60
2020,08,12,00,41,12.60
2020,08,12,00,42,12.60
2020,08,12,00,43,12.60
2020,08,12,00,44,12.60
2020,08,12,00,45,12.60
2020,08,12,00,46,12.60
2020,08,12,00,47,12.50
2020,08,12,00,48,12.50
2020,08,12,00,49,12.50
2020,08,12,00,50,12.50
2020,08,12,00,51,12.50
2020,08,12,00,52,12.60
2020,08,12,00,53,12.50
2020,08,12,00,54,12.50
2020,08,12,00,55,12.60
2020,08,12,00,56,12.60
2020,08,12,00,57,12.60
2020,08,12,00,58,12.60
2020,08,12,01,00,12.60
2020,08,12,01,01,12.60
2020,08,12,01,02,12.60
2020,08,12,01,03,12.60
2020,08,12,01,04,12.60
2020,08,12,01,05,12.60
2020,08,12,01,06,12.60
2020,08,12,01,07,12.60
2020,08,12,01,09,12.60
2020,08,12,01,10,12.60
2020,08,12,01,11,12.60
2020,08,12,01,12,12.60
2020,08,12,01,13,12.60
2020,08,12,01,14,12.60
2020,08,12,01,15,12.70
2020,08,12,01,16,12.70
2020,08,12,01,17,12.60
2020,08,12,01,19,12.60
2020,08,12,01,21,12.60
2020,08,12,01,22,12.60
2020,08,12,01,23,12.60
2020,08,12,01,24,12.60
2020,08,12,01,25,12.50
2020,08,12,01,27,12.50
2020,08,12,01,28,12.40
2020,08,12,01,31,12.30
2020,08,12,01,32,12.30
2020,08,12,01,33,12.30
2020,08,12,01,34,12.30
2020,08,12,01,36,12.20
2020,08,12,01,37,12.20
2020,08,12,01,38,12.20
2020,08,12,01,39,12.20
2020,08,12,01,41,12.20
2020,08,12,01,43,12.20
2020,08,12,01,44,12.20
2020,08,12,01,45,12.20
2020,08,12,01,46,12.20
2020,08,12,01,47,12.20
2020,08,12,01,48,12.20
2020,08,12,01,49,12.20
2020,08,12,01,50,12.20
2020,08,12,01,51,12.10
2020,08,12,01,52,12.10
2020,08,12,01,53,12.10
2020,08,12,01,54,12.10
2020,08,12,01,55,12.10
2020,08,12,01,56,12.10
2020,08,12,01,57,11.90
2020,08,12,01,58,11.90
2020,08,12,01,59,11.80
2020,08,12,02,00,11.80
2020,08,12,02,01,11.80
2020,08,12,02,02,11.70
2020,08,12,02,03,11.70
2020,08,12,02,04,11.60
2020,08,12,02,05,11.60
2020,08,12,02,06,11.40
2020,08,12,02,07,11.40
2020,08,12,02,08,11.40
2020,08,12,02,09,11.30
2020,08,12,02,10,11.30
2020,08,12,02,11,11.30
2020,08,12,02,12,11.30
2020,08,12,02,13,11.20
2020,08,12,02,14,11.20
2020,08,12,02,15,11.20
2020,08,12,02,16,11.10
2020,08,12,02,17,11.10
2020,08,12,02,18,11.00
2020,08,12,02,19,11.00
2020,08,12,02,20,10.90
2020,08,12,02,21,10.90
2020,08,12,02,22,10.80
2020,08,12,02,23,10.80
2020,08,12,02,24,10.80
2020,08,12,02,25,10.70
2020,08,12,02,26,10.70
2020,08,12,02,27,10.70
2020,08,12,02,28,10.70
2020,08,12,02,29,10.70
2020,08,12,02,30,10.70
2020,08,12,02,31,10.70
2020,08,12,02,32,10.70
2020,08,12,02,33,10.70
2020,08,12,02,34,10.70
2020,08,12,02,35,10.70
2020,08,12,02,36,10.70
2020,08,12,02,37,10.70
2020,08,12,02,38,10.70
2020,08,12,02,39,10.70
2020,08,12,02,40,10.70
2020,08,12,02,41,10.60
2020,08,12,02,42,10.60
2020,08,12,02,43,10.60
2020,08,12,02,44,10.60
2020,08,12,02,45,10.60
2020,08,12,02,46,10.60
2020,08,12,02,47,10.50
2020,08,12,02,48,10.50
2020,08,12,02,49,10.50
2020,08,12,02,50,10.40
2020,08,12,02,51,10.40
2020,08,12,02,52,10.40
2020,08,12,02,53,10.40
2020,08,12,02,54,10.40
2020,08,12,02,55,10.30
2020,08,12,02,56,10.30
2020,08,12,02,57,10.30
2020,08,12,02,58,10.30
2020,08,12,02,59,10.30
2020,08,12,03,00,10.30
2020,08,12,03,01,10.20
2020,08,12,03,02,10.20
2020,08,12,03,03,10.20
2020,08,12,03,04,10.20
2020,08,12,03,05,10.20
2020,08,12,03,06,10.20
2020,08,12,03,07,10.20
2020,08,12,03,08,10.20
2020,08,12,03,09,10.30
2020,08,12,03,10,10.30
2020,08,12,03,11,10.30
2020,08,12,03,12,10.30
2020,08,12,03,13,10.30
2020,08,12,03,14,10.40
2020,08,12,03,15,10.40
2020,08,12,03,16,10.40
2020,08,12,03,17,10.40
2020,08,12,03,18,10.40
2020,08,12,03,19,10.40
2020,08,12,03,20,10.40
2020,08,12,03,21,10.30
2020,08,12,03,22,10.30
2020,08,12,03,23,10.30
2020,08,12,03,24,10.30
2020,08,12,03,25,10.30
2020,08,12,03,26,10.30
2020,08,12,03,27,10.30
2020,08,12,03,28,10.20
2020,08,12,03,29,10.20
2020,08,12,03,30,10.20
2020,08,12,03,31,10.20
2020,08,12,03,32,10.20
2020,08,12,03,33,10.20
2020,08,12,03,34,10.20
2020,08,12,03,35,10.10
2020,08,12,03,36,10.10
2020,08,12,03,37,10.10
2020,08,12,03,38,10.10
2020,08,12,03,39,10.10
2020,08,12,03,40,10.10
2020,08,12,03,41,10.10
2020,08,12,03,42,10.10
2020,08,12,03,43,10.10
2020,08,12,03,44,10.10
2020,08,12,03,45,10.10
2020,08,12,03,46,10.00
2020,08,12,03,47,10.00
2020,08,12,03,48,10.00
2020,08,12,03,49,9.90
2020,08,12,03,50,9.90
2020,08,12,03,51,9.90
2020,08,12,03,52,9.90
2020,08,12,03,53,9.90
2020,08,12,03,54,9.90
2020,08,12,03,55,9.90
2020,08,12,03,56,9.90
2020,08,12,03,57,9.90
2020,08,12,03,58,9.90
2020,08,12,03,59,9.90
2020,08,12,04,00,9.90
2020,08,12,04,01,9.90
2020,08,12,04,02,9.90
2020,08,12,04,03,9.90
2020,08,12,04,04,9.90
2020,08,12,04,05,9.90
2020,08,12,04,06,9.90
2020,08,12,04,07,9.90
2020,08,12,04,08,9.90
2020,08,12,04,09,9.90
2020,08,12,04,10,9.90
2020,08,12,04,11,9.90
2020,08,12,04,12,9.90
2020,08,12,04,13,9.90
2020,08,12,04,14,10.00
2020,08,12,04,15,10.00
2020,08,12,04,16,10.10
2020,08,12,04,17,10.10
2020,08,12,04,18,10.20
2020,08,12,04,19,10.20
2020,08,12,04,20,10.20
2020,08,12,04,21,10.20
2020,08,12,04,22,10.30
2020,08,12,04,23,10.30
2020,08,12,04,24,10.30
2020,08,12,04,25,10.40
2020,08,12,04,26,10.40
2020,08,12,04,27,10.40
2020,08,12,04,28,10.40
2020,08,12,04,29,10.50
2020,08,12,04,30,10.50
2020,08,12,04,31,10.50
2020,08,12,04,32,10.50
2020,08,12,04,33,10.60
2020,08,12,04,34,10.60
2020,08,12,04,35,10.60
2020,08,12,04,36,10.70
2020,08,12,04,37,10.70
2020,08,12,04,38,10.70
2020,08,12,04,39,10.70
2020,08,12,04,40,10.70
2020,08,12,04,41,10.80
2020,08,12,04,42,10.80
2020,08,12,04,43,10.80
2020,08,12,04,44,10.80
2020,08,12,04,45,10.80
2020,08,12,04,46,10.80
2020,08,12,04,47,10.80
2020,08,12,04,48,10.80
2020,08,12,04,49,10.80
2020,08,12,04,50,10.80
2020,08,12,04,51,10.80
2020,08,12,04,52,10.80
2020,08,12,04,53,10.70
2020,08,12,04,54,10.70
2020,08,12,04,55,10.70
2020,08,12,04,56,10.70
2020,08,12,04,57,10.70
2020,08,12,04,58,10.70
2020,08,12,04,59,10.70
2020,08,12,05,00,10.70
2020,08,12,05,01,10.70
2020,08,12,05,02,10.70
2020,08,12,05,03,10.70
2020,08,12,05,04,10.70
2020,08,12,05,05,10.70
2020,08,12,05,06,10.70
2020,08,12,05,07,10.60
2020,08,12,05,08,10.60
2020,08,12,05,09,10.60
2020,08,12,05,10,10.60
2020,08,12,05,11,10.60
2020,08,12,05,12,10.60
2020,08,12,05,13,10.50
2020,08,12,05,14,10.50
2020,08,12,05,15,10.40
2020,08,12,05,16,10.40
2020,08,12,05,17,10.40
2020,08,12,05,18,10.40
2020,08,12,05,19,10.40
2020,08,12,05,20,10.30
2020,08,12,05,21,10.30
2020,08,12,05,22,10.30
2020,08,12,05,23,10.30
2020,08,12,05,24,10.30
2020,08,12,05,25,10.30
2020,08,12,05,26,10.30
2020,08,12,05,27,10.30
2020,08,12,05,28,10.30
2020,08,12,05,29,10.30
2020,08,12,05,30,10.30
2020,08,12,05,31,10.30
2020,08,12,05,32,10.30
2020,08,12,05,33,10.30
2020,08,12,05,34,10.30
2020,08,12,05,35,10.30
2020,08,12,05,36,10.40
2020,08,12,05,37,10.40
2020,08,12,05,38,10.40
2020,08,12,05,39,10.40
2020,08,12,05,40,10.40
2020,08,12,05,41,10.40
2020,08,12,05,42,10.40
2020,08,12,05,43,10.40
2020,08,12,05,44,10.40
2020,08,12,05,45,10.40
2020,08,12,05,46,10.30
2020,08,12,05,47,10.30
2020,08,12,05,48,10.30
2020,08,12,05,49,10.40
2020,08,12,05,50,10.40
2020,08,12,05,51,10.40
2020,08,12,05,52,10.40
2020,08,12,05,53,10.40
2020,08,12,05,54,10.40
2020,08,12,05,55,10.40
2020,08,12,05,56,10.40
2020,08,12,05,57,10.40
2020,08,12,05,58,10.40
2020,08,12,05,59,10.40
2020,08,12,06,00,10.40
2020,08,12,06,01,10.40
2020,08,12,06,02,10.40
2020,08,12,06,03,10.40
2020,08,12,06,04,10.40
2020,08,12,06,05,10.40
2020,08,12,06,06,10.40
2020,08,12,06,07,10.40
2020,08,12,06,08,10.40
2020,08,12,06,09,10.40
2020,08,12,06,10,10.40
2020,08,12,06,11,10.40
2020,08,12,06,12,10.40
2020,08,12,06,13,10.40
2020,08,12,06,14,10.40
2020,08,12,06,15,10.40
2020,08,12,06,16,10.40
2020,08,12,06,17,10.40
2020,08,12,06,18,10.40
2020,08,12,06,19,10.40
2020,08,12,06,20,10.40
2020,08,12,06,21,10.40
2020,08,12,06,22,10.40
2020,08,12,06,23,10.40
2020,08,12,06,24,10.40
2020,08,12,06,25,10.40
2020,08,12,06,26,10.30
2020,08,12,06,27,10.30
2020,08,12,06,28,10.30
2020,08,12,06,29,10.30
2020,08,12,06,30,10.40
2020,08,12,06,31,10.40
2020,08,12,06,32,10.40
2020,08,12,06,33,10.40
2020,08,12,06,34,10.50
2020,08,12,06,35,10.50
2020,08,12,06,36,10.50
2020,08,12,06,37,10.50
2020,08,12,06,38,10.50
2020,08,12,06,39,10.50
2020,08,12,06,40,10.50
2020,08,12,06,41,10.40
2020,08,12,06,42,10.40
2020,08,12,06,43,10.40
2020,08,12,06,44,10.40
2020,08,12,06,45,10.40
2020,08,12,06,46,10.40
2020,08,12,06,47,10.30
2020,08,12,06,48,10.30
2020,08,12,06,49,10.30
2020,08,12,06,50,10.30
2020,08,12,06,51,10.30
2020,08,12,06,52,10.30
2020,08,12,06,53,10.30
2020,08,12,06,54,10.30
2020,08,12,06,55,10.30
2020,08,12,06,56,10.30
2020,08,12,06,57,10.30
2020,08,12,06,58,10.30
2020,08,12,06,59,10.30
2020,08,12,07,00,10.30
2020,08,12,07,01,10.30
2020,08,12,07,02,10.40
2020,08,12,07,03,10.40
2020,08,12,07,04,10.40
2020,08,12,07,05,10.50
2020,08,12,07,06,10.50
2020,08,12,07,07,10.50
2020,08,12,07,08,10.60
2020,08,12,07,09,10.60
2020,08,12,07,10,10.60
2020,08,12,07,11,10.60
2020,08,12,07,12,10.60
2020,08,12,07,13,10.60
2020,08,12,07,14,10.70
2020,08,12,07,15,10.70
2020,08,12,07,16,10.70
2020,08,12,07,17,10.70
2020,08,12,07,18,10.70
2020,08,12,07,19,10.70
2020,08,12,07,20,10.80
2020,08,12,07,21,10.80
2020,08,12,07,22,10.80
2020,08,12,07,23,10.80
2020,08,12,07,24,10.80
2020,08,12,07,25,10.90
2020,08,12,07,26,10.90
2020,08,12,07,27,10.90
2020,08,12,07,28,11.10
2020,08,12,07,29,11.10
2020,08,12,07,30,11.10
2020,08,12,07,31,11.20
2020,08,12,07,32,11.20
2020,08,12,07,33,11.20
2020,08,12,07,34,11.30
2020,08,12,07,35,11.30
2020,08,12,07,36,11.30
2020,08,12,07,37,11.40
2020,08,12,07,38,11.40
2020,08,12,07,39,11.50
2020,08,12,07,40,11.60
2020,08,12,07,41,11.70
2020,08,12,07,42,11.70
2020,08,12,07,43,11.80
2020,08,12,07,44,11.80
2020,08,12,07,45,11.90
2020,08,12,07,46,11.90
2020,08,12,07,47,12.00
2020,08,12,07,48,12.10
2020,08,12,07,49,12.10
2020,08,12,07,50,12.20
2020,08,12,07,51,12.20
2020,08,12,07,52,12.30
2020,08,12,07,53,12.30
2020,08,12,07,54,12.30
2020,08,12,07,55,12.40
2020,08,12,07,56,12.40
2020,08,12,07,57,12.40
2020,08,12,07,58,12.50
2020,08,12,07,59,12.60
2020,08,12,08,00,12.60
2020,08,12,08,01,12.60
2020,08,12,08,02,12.70
2020,08,12,08,03,12.70
2020,08,12,08,04,12.70
2020,08,12,08,05,12.80
2020,08,12,08,06,12.80
2020,08,12,08,07,12.80
2020,08,12,08,08,12.90
2020,08,12,08,09,12.90
2020,08,12,08,10,12.90
2020,08,12,08,11,13.00
2020,08,12,08,12,13.10
2020,08,12,08,13,13.10
2020,08,12,08,14,13.10
2020,08,12,08,15,13.10
2020,08,12,08,16,13.10
2020,08,12,08,17,13.20
2020,08,12,08,18,13.20
2020,08,12,08,19,13.20
2020,08,12,08,20,13.20
2020,08,12,08,21,13.20
2020,08,12,08,22,13.30
2020,08,12,08,23,13.30
2020,08,12,08,24,13.30
2020,08,12,08,25,13.30
2020,08,12,08,26,13.40
2020,08,12,08,27,13.40
2020,08,12,08,28,13.40
2020,08,12,08,29,13.40
2020,08,12,08,30,13.40
2020,08,12,08,31,13.40
2020,08,12,08,32,13.40
2020,08,12,08,33,13.40
2020,08,12,08,34,13.40
2020,08,12,08,35,13.40
2020,08,12,08,36,13.50
2020,08,12,08,37,13.50
2020,08,12,08,38,13.50
2020,08,12,08,39,13.50
2020,08,12,08,40,13.40
2020,08,12,08,41,13.40
2020,08,12,08,42,13.40
2020,08,12,08,43,13.40
2020,08,12,08,44,13.30
2020,08,12,08,45,13.30
2020,08,12,08,46,13.30
2020,08,12,08,47,13.30
2020,08,12,08,48,13.30
2020,08,12,08,49,13.30
2020,08,12,08,50,13.30
2020,08,12,08,51,13.30
2020,08,12,08,52,13.40
2020,08,12,08,53,13.40
2020,08,12,08,54,13.40
2020,08,12,08,55,13.50
2020,08,12,08,56,13.50
2020,08,12,08,57,13.60
2020,08,12,08,58,13.60
2020,08,12,08,59,13.60
2020,08,12,09,00,13.60
2020,08,12,09,01,13.60
2020,08,12,09,03,13.70
2020,08,12,09,04,13.70
2020,08,12,09,05,13.70
2020,08,12,09,06,13.80
2020,08,12,09,07,13.80
2020,08,12,09,08,13.80
2020,08,12,09,09,13.90
2020,08,12,09,10,14.00
2020,08,12,09,11,14.10
2020,08,12,09,12,14.10
2020,08,12,09,13,14.20
2020,08,12,09,14,14.30
2020,08,12,09,16,14.40
2020,08,12,09,17,14.40
2020,08,12,09,18,14.50
2020,08,12,09,19,14.60
2020,08,12,09,20,14.70
2020,08,12,09,22,14.80
2020,08,12,09,24,14.80
2020,08,12,09,25,14.80
2020,08,12,09,27,14.80
2020,08,12,09,28,14.80
2020,08,12,09,29,14.80
2020,08,12,09,30,14.80
2020,08,12,09,31,14.80
2020,08,12,09,32,14.80
2020,08,12,09,33,14.80
2020,08,12,09,34,14.70
2020,08,12,09,35,14.70
2020,08,12,09,37,14.70
2020,08,12,09,40,14.70
2020,08,12,09,41,14.70
2020,08,12,09,42,14.70
2020,08,12,09,44,14.80
2020,08,12,09,45,14.80
2020,08,12,09,47,14.80
2020,08,12,09,49,14.80
2020,08,12,09,50,14.90
2020,08,12,09,51,14.90
2020,08,12,09,52,14.90
2020,08,12,09,53,14.90
2020,08,12,09,55,14.90
2020,08,12,09,56,14.90
2020,08,12,09,57,15.00
2020,08,12,09,58,15.00
2020,08,12,10,00,15.10
2020,08,12,10,02,15.00
2020,08,12,10,04,15.00
2020,08,12,10,05,15.00
2020,08,12,10,06,15.10
2020,08,12,10,07,15.10
2020,08,12,10,09,15.10
2020,08,12,10,11,15.20
2020,08,12,10,12,15.20
2020,08,12,10,13,15.30
2020,08,12,10,14,15.30
2020,08,12,10,15,15.30
2020,08,12,10,16,15.40
2020,08,12,10,17,15.40
2020,08,12,10,18,15.40
2020,08,12,10,19,15.50
2020,08,12,10,20,15.60
2020,08,12,10,21,15.60
2020,08,12,10,22,15.70
2020,08,12,10,23,15.70
2020,08,12,10,25,15.90
2020,08,12,10,26,16.00
2020,08,12,10,29,16.30
2020,08,12,10,31,16.60
2020,08,12,10,32,16.70
2020,08,12,10,33,16.80
2020,08,12,10,34,17.00
2020,08,12,10,35,17.10
2020,08,12,10,36,17.30
2020,08,12,10,37,17.30
2020,08,12,10,38,17.40
2020,08,12,10,39,17.40
2020,08,12,10,40,17.40
2020,08,12,10,41,17.30
2020,08,12,10,42,17.20
2020,08,12,10,43,17.20
2020,08,12,10,44,17.10
2020,08,12,10,45,17.10
2020,08,12,10,46,17.00
2020,08,12,10,47,17.00
2020,08,12,10,48,16.90
2020,08,12,10,49,16.90
2020,08,12,10,50,16.80
2020,08,12,10,51,16.80
2020,08,12,10,52,16.70
2020,08,12,10,53,16.70
2020,08,12,10,54,16.70
2020,08,12,10,55,16.70
2020,08,12,10,57,16.70
2020,08,12,10,59,16.70
2020,08,12,11,00,16.70
2020,08,12,11,01,16.70
2020,08,12,11,02,16.70
2020,08,12,11,03,16.60
2020,08,12,11,05,16.60
2020,08,12,11,07,16.40
2020,08,12,11,09,16.40
2020,08,12,11,10,16.40
2020,08,12,11,13,16.60
2020,08,12,11,14,16.50
2020,08,12,11,15,16.40
2020,08,12,11,16,16.40
2020,08,12,11,17,16.30
2020,08,12,11,18,16.30
2020,08,12,11,20,16.30
2020,08,12,11,22,16.30
2020,08,12,11,24,16.40
2020,08,12,11,26,16.30
2020,08,12,11,27,16.40
2020,08,12,11,28,16.40
2020,08,12,11,29,16.40
2020,08,12,11,30,16.40
2020,08,12,11,31,16.40
2020,08,12,11,32,16.40
2020,08,12,11,33,16.40
2020,08,12,11,37,16.70
2020,08,12,11,38,16.80
2020,08,12,11,39,16.80
2020,08,12,11,40,16.80
2020,08,12,11,41,16.90
2020,08,12,11,42,16.90
2020,08,12,11,43,16.90
2020,08,12,11,44,17.00
2020,08,12,11,45,17.10
2020,08,12,11,46,17.10
2020,08,12,11,47,17.10
2020,08,12,11,48,17.10
2020,08,12,11,49,17.10
2020,08,12,11,50,17.20
2020,08,12,11,51,17.20
2020,08,12,11,52,17.30
2020,08,12,11,53,17.30
2020,08,12,11,54,17.40
2020,08,12,11,55,17.40
2020,08,12,11,56,17.50
2020,08,12,11,57,17.50
2020,08,12,11,58,17.60
2020,08,12,11,59,17.60
2020,08,12,12,00,17.60
2020,08,12,12,01,17.50
2020,08,12,12,02,17.50
2020,08,12,12,03,17.40
2020,08,12,12,04,17.40
2020,08,12,12,05,17.40
2020,08,12,12,06,17.40
2020,08,12,12,07,17.40
2020,08,12,12,08,17.40
2020,08,12,12,09,17.40
2020,08,12,12,11,17.50
2020,08,12,12,12,17.60
2020,08,12,12,13,17.60
2020,08,12,12,14,17.60
2020,08,12,12,15,17.60
2020,08,12,12,17,17.70
2020,08,12,12,18,17.70
2020,08,12,12,19,17.70
2020,08,12,12,20,17.80
2020,08,12,12,22,17.90
2020,08,12,12,23,17.90
2020,08,12,12,24,18.10
2020,08,12,12,25,18.10
2020,08,12,12,26,18.10
2020,08,12,12,27,18.10
2020,08,12,12,28,18.10
2020,08,12,12,29,18.10
2020,08,12,12,30,18.10
2020,08,12,12,31,18.10
2020,08,12,12,33,18.10
2020,08,12,12,34,18.10
2020,08,12,12,35,18.20
2020,08,12,12,36,18.20
2020,08,12,12,37,18.20
2020,08,12,12,38,18.20
2020,08,12,12,39,18.30
2020,08,12,12,40,18.30
2020,08,12,12,41,18.30
2020,08,12,12,43,18.40
2020,08,12,12,44,18.60
2020,08,12,12,46,18.70
2020,08,12,12,47,18.80
2020,08,12,12,48,18.90
2020,08,12,12,49,19.10
2020,08,12,12,50,19.10
2020,08,12,12,51,19.10
2020,08,12,12,52,19.20
2020,08,12,12,54,19.20
2020,08,12,12,55,19.20
2020,08,12,12,56,19.30
2020,08,12,12,57,19.40
2020,08,12,12,58,19.40
2020,08,12,12,59,19.60
2020,08,12,13,00,19.60
2020,08,12,13,02,19.70
2020,08,12,13,03,19.60
2020,08,12,13,04,19.60
2020,08,12,13,05,19.60
2020,08,12,13,06,19.70
2020,08,12,13,09,19.60
2020,08,12,13,11,19.60
2020,08,12,13,12,19.70
2020,08,12,13,13,19.70
2020,08,12,13,15,19.80
2020,08,12,13,16,19.80
2020,08,12,13,17,19.90
2020,08,12,13,18,19.90
2020,08,12,13,19,20.00
2020,08,12,13,21,20.10
2020,08,12,13,22,20.10
2020,08,12,13,24,20.20
2020,08,12,13,25,20.30
2020,08,12,13,26,20.30
2020,08,12,13,28,20.40
2020,08,12,13,30,20.40
2020,08,12,13,31,20.40
2020,08,12,13,32,20.50
2020,08,12,13,33,20.60
2020,08,12,13,34,20.60
2020,08,12,13,35,20.60
2020,08,12,13,36,20.60
2020,08,12,13,37,20.70
2020,08,12,13,39,20.70
2020,08,12,13,40,20.60
2020,08,12,13,41,20.60
2020,08,12,13,42,20.60
2020,08,12,13,43,20.60
2020,08,12,13,44,20.60
2020,08,12,13,46,20.40
2020,08,12,13,48,20.50
2020,08,12,13,49,20.50
2020,08,12,13,50,20.60
2020,08,12,13,52,20.70
2020,08,12,13,54,20.90
2020,08,12,13,56,20.90
2020,08,12,13,57,21.00
2020,08,12,13,58,21.00
2020,08,12,14,00,21.10
2020,08,12,14,01,21.10
2020,08,12,14,02,21.20
2020,08,12,14,03,21.20
2020,08,12,14,05,21.10
2020,08,12,14,06,21.00
2020,08,12,14,09,21.10
2020,08,12,14,10,21.20
2020,08,12,14,11,21.20
2020,08,12,14,13,21.40
2020,08,12,14,15,21.60
2020,08,12,14,16,21.60
2020,08,12,14,18,21.60
2020,08,12,14,20,21.50
2020,08,12,14,21,21.50
2020,08,12,14,24,21.50
2020,08,12,14,25,21.50
2020,08,12,14,26,21.60
2020,08,12,14,27,21.50
2020,08,12,14,28,21.50
2020,08,12,14,30,21.60
2020,08,12,14,31,21.60
2020,08,12,14,33,21.70
2020,08,12,14,35,21.90
2020,08,12,14,36,22.00
2020,08,12,14,37,22.10
2020,08,12,14,38,22.10
2020,08,12,14,40,22.20
2020,08,12,14,41,22.20
2020,08,12,14,42,22.20
2020,08,12,14,43,22.20
2020,08,12,14,44,22.20
2020,08,12,14,45,22.20
2020,08,12,14,46,22.20
2020,08,12,14,47,22.20
2020,08,12,14,48,22.30
2020,08,12,14,50,22.40
2020,08,12,14,51,22.30
2020,08,12,14,52,22.20
2020,08,12,14,53,22.20
2020,08,12,14,54,22.10
2020,08,12,14,55,22.10
2020,08,12,14,56,22.10
2020,08,12,14,57,22.10
2020,08,12,14,58,22.10
2020,08,12,15,00,22.10
2020,08,12,15,01,22.20
2020,08,12,15,02,22.20
2020,08,12,15,03,22.30
2020,08,12,15,05,22.40
2020,08,12,15,06,22.40
2020,08,12,15,07,22.40
2020,08,12,15,08,22.50
2020,08,12,15,10,22.70
2020,08,12,15,11,22.80
2020,08,12,15,12,23.00
2020,08,12,15,13,23.10
2020,08,12,15,14,23.10
2020,08,12,15,15,23.10
2020,08,12,15,16,23.10
2020,08,12,15,17,23.20
2020,08,12,15,18,23.20
2020,08,12,15,20,23.20
2020,08,12,15,22,23.10
2020,08,12,15,23,22.90
2020,08,12,15,24,22.90
2020,08,12,15,26,22.80
2020,08,12,15,27,22.90
2020,08,12,15,28,23.10
2020,08,12,15,29,23.20
2020,08,12,15,30,23.30
2020,08,12,15,31,23.40
2020,08,12,15,32,23.50
2020,08,12,15,33,23.70
2020,08,12,15,35,23.90
2020,08,12,15,37,24.00
2020,08,12,15,39,24.00
2020,08,12,15,40,23.80
2020,08,12,15,41,23.70
2020,08,12,15,42,23.50
2020,08,12,15,43,23.30
2020,08,12,15,44,23.20
2020,08,12,15,45,23.00
2020,08,12,15,46,22.90
2020,08,12,15,47,22.80
2020,08,12,15,49,22.70
2020,08,12,15,50,22.70
2020,08,12,15,51,22.60
2020,08,12,15,52,22.60
2020,08,12,15,54,22.60
2020,08,12,15,55,22.60
2020,08,12,15,56,22.60
2020,08,12,15,57,22.50
2020,08,12,15,58,22.40
2020,08,12,16,01,22.40
2020,08,12,16,03,22.30
2020,08,12,16,05,22.40
2020,08,12,16,06,22.40
2020,08,12,16,07,22.40
2020,08,12,16,09,22.40
2020,08,12,16,11,22.30
2020,08,12,16,13,22.30
2020,08,12,16,14,22.30
2020,08,12,16,15,22.30
2020,08,12,16,16,22.20
2020,08,12,16,17,22.20
2020,08,12,16,20,22.30
2020,08,12,16,21,22.40
2020,08,12,16,22,22.50
2020,08,12,16,23,22.60
2020,08,12,16,24,22.60
2020,08,12,16,25,22.70
2020,08,12,16,26,22.70
2020,08,12,16,28,22.60
2020,08,12,16,29,22.60
2020,08,12,16,31,22.60
2020,08,12,16,32,22.60
2020,08,12,16,33,22.60
2020,08,12,16,34,22.60
2020,08,12,16,35,22.60
2020,08,12,16,36,22.60
2020,08,12,16,37,22.60
2020,08,12,16,38,22.60
2020,08,12,16,39,22.60
2020,08,12,16,40,22.60
2020,08,12,16,41,22.60
2020,08,12,16,42,22.70
2020,08,12,16,43,22.70
2020,08,12,16,44,22.70
2020,08,12,16,45,22.70
2020,08,12,16,46,22.70
2020,08,12,16,47,22.60
2020,08,12,16,49,22.60
2020,08,12,16,50,22.60
2020,08,12,16,52,22.50
2020,08,12,16,53,22.40
2020,08,12,16,55,22.40
2020,08,12,16,57,22.30
2020,08,12,16,58,22.30
2020,08,12,16,59,22.30
2020,08,12,17,00,22.30
2020,08,12,17,01,22.30
2020,08,12,17,02,22.30
2020,08,12,17,03,22.30
2020,08,12,17,04,22.30
2020,08,12,17,05,22.30
2020,08,12,17,07,22.40
2020,08,12,17,09,22.40
2020,08,12,17,11,22.30
2020,08,12,17,12,22.20
2020,08,12,17,13,22.10
2020,08,12,17,14,22.00
2020,08,12,17,15,22.00
2020,08,12,17,16,22.00
2020,08,12,17,17,22.00
2020,08,12,17,18,22.00
2020,08,12,17,19,22.00
2020,08,12,17,21,22.00
2020,08,12,17,22,22.00
2020,08,12,17,23,22.00
2020,08,12,17,24,21.90
2020,08,12,17,25,21.90
2020,08,12,17,26,21.80
2020,08,12,17,28,21.80
2020,08,12,17,29,21.70
2020,08,12,17,30,21.70
2020,08,12,17,31,21.70
2020,08,12,17,32,21.80
2020,08,12,17,33,21.80
2020,08,12,17,34,21.90
2020,08,12,17,35,21.90
2020,08,12,17,37,21.80
2020,08,12,17,39,21.70
2020,08,12,17,41,21.60
2020,08,12,17,42,21.50
2020,08,12,17,43,21.40
2020,08,12,17,44,21.40
2020,08,12,17,45,21.40
2020,08,12,17,46,21.40
2020,08,12,17,47,21.40
2020,08,12,17,48,21.30
2020,08,12,17,49,21.30
2020,08,12,17,50,21.30
2020,08,12,17,51,21.30
2020,08,12,17,52,21.30
2020,08,12,17,53,21.30
2020,08,12,17,54,21.30
2020,08,12,17,56,21.30
2020,08,12,17,57,21.30
2020,08,12,17,58,21.30
2020,08,12,17,59,21.30
2020,08,12,18,00,21.20
2020,08,12,18,01,21.20
2020,08,12,18,02,21.10
2020,08,12,18,07,20.80
2020,08,12,18,08,20.80
2020,08,12,18,09,20.90
2020,08,12,18,10,20.90
2020,08,12,18,11,20.90
2020,08,12,18,12,20.90
2020,08,12,18,13,20.90
2020,08,12,18,14,20.90
2020,08,12,18,15,20.90
2020,08,12,18,17,21.00
2020,08,12,18,20,21.10
2020,08,12,18,21,21.10
2020,08,12,18,22,21.00
2020,08,12,18,23,20.90
2020,08,12,18,24,21.00
2020,08,12,18,25,20.90
2020,08,12,18,26,20.90
2020,08,12,18,28,20.90
2020,08,12,18,29,20.90
2020,08,12,18,30,20.80
2020,08,12,18,31,20.70
2020,08,12,18,32,20.60
2020,08,12,18,33,20.50
2020,08,12,18,34,20.40
2020,08,12,18,36,20.40
2020,08,12,18,37,20.40
2020,08,12,18,39,20.40
2020,08,12,18,41,20.40
2020,08,12,18,42,20.40
2020,08,12,18,43,20.30
2020,08,12,18,44,20.30
2020,08,12,18,45,20.30
2020,08,12,18,47,20.30
2020,08,12,18,49,20.30
2020,08,12,18,50,20.30
2020,08,12,18,52,20.20
2020,08,12,18,53,20.20
2020,08,12,18,54,20.10
2020,08,12,18,55,20.10
2020,08,12,18,56,20.10
2020,08,12,18,57,20.10
2020,08,12,18,58,20.10
2020,08,12,19,00,19.90
2020,08,12,19,01,19.80
2020,08,12,19,02,19.80
2020,08,12,19,03,19.70
2020,08,12,19,05,19.60
2020,08,12,19,06,19.60
2020,08,12,19,07,19.60
2020,08,12,19,08,19.60
2020,08,12,19,09,19.60
2020,08,12,19,10,19.60
2020,08,12,19,11,19.60
2020,08,12,19,13,19.50
2020,08,12,19,15,19.40
2020,08,12,19,17,19.40
2020,08,12,19,18,19.30
2020,08,12,19,19,19.30
2020,08,12,19,20,19.30
2020,08,12,19,21,19.30
2020,08,12,19,22,19.30
2020,08,12,19,23,19.30
2020,08,12,19,24,19.30
2020,08,12,19,26,19.30
2020,08,12,19,27,19.30
2020,08,12,19,28,19.30
2020,08,12,19,29,19.30
2020,08,12,19,30,19.20
2020,08,12,19,31,19.20
2020,08,12,19,32,19.10
2020,08,12,19,34,18.90
2020,08,12,19,35,18.80
2020,08,12,19,36,18.80
2020,08,12,19,37,18.70
2020,08,12,19,39,18.60
2020,08,12,19,40,18.60
2020,08,12,19,41,18.50
2020,08,12,19,42,18.40
2020,08,12,19,43,18.40
2020,08,12,19,44,18.40